Change the Weather History Date:

Wednesday, March 26, 2014

  Actual Average Record
Temperature  
Mean Temperature 28 °F -  
Max Temperature 41 °F 55 °F 80 °F (1967)
Min Temperature 18 °F 35 °F 18 °F (2014)
Degree Days  
Heating Degree Days 36    
Moisture  
Dew Point 12 °F    
Average Humidity 50    
Maximum Humidity 78    
Minimum Humidity 28    
Precipitation  
Precipitation 0.00 in - - ()
Sea Level Pressure  
Sea Level Pressure 30.33 in    
Wind  
Wind Speed 6 mph (West)    
Max Wind Speed 14 mph    
Max Gust Speed -    
Visibility 10 miles    
Events      
Averages and records for this station are not official NWS values.
T = Trace of Precipitation, MM = Missing Value Source: NWS Daily Summary

Daily Weather History Graph

Daily Weather History Graph

Search for Another Location

Airport or City:

Trip Planner

Search our weather history database for the weather conditions in past years. The results will help you decide how hot, cold, wet, or windy it might be!

Date:

Astronomy

Mar. 26, 2014 Rise Set
Actual Time 7:31 AM EDT 7:55 PM EDT
Civil Twilight 7:04 AM EDT 8:22 PM EDT
Nautical Twilight 6:33 AM EDT 8:53 PM EDT
Astronomical Twilight 6:01 AM EDT 9:26 PM EDT
Moon 4:37 AM EDT (3/26) 3:34 PM EDT (3/26)
Length of Visible Light 13h 17m
Length of Day
12h 23m
Waning Crescent, 22% of the Moon is Illuminated
Mar 26
Waning Crescent
Mar 30
New
Apr 7
First Quarter
Apr 15
Full
Apr 22
Last Quarter

Hourly Weather History & Observations

Time (EDT) Temp. Windchill Dew Point Humidity Pressure Visibility Wind Dir Wind Speed Gust Speed Precip Events Conditions
12:53 AM 26.1 °F 19.4 °F 14.0 °F 60% 30.25 in 10.0 mi Variable 5.8 mph - N/A   Clear
1:53 AM 26.1 °F 16.2 °F 17.1 °F 69% 30.27 in 9.0 mi North 10.4 mph - 0.00 in   Overcast
2:53 AM 26.1 °F 14.5 °F 12.9 °F 58% 30.28 in 10.0 mi NNW 13.8 mph - 0.00 in   Overcast
3:53 AM 24.1 °F 13.7 °F 12.0 °F 60% 30.29 in 10.0 mi NNE 10.4 mph - N/A   Overcast
4:53 AM 21.9 °F 13.4 °F 10.0 °F 60% 30.30 in 10.0 mi NNE 6.9 mph - N/A   Partly Cloudy
5:53 AM 21.0 °F - 10.0 °F 63% 30.32 in 10.0 mi Calm Calm - N/A   Clear
6:53 AM 19.0 °F - 12.0 °F 74% 30.34 in 10.0 mi Calm Calm - N/A   Partly Cloudy
7:53 AM 18.0 °F - 12.0 °F 78% 30.37 in 10.0 mi Calm Calm - N/A   Clear
8:53 AM 23.0 °F - 12.9 °F 65% 30.40 in 10.0 mi Calm Calm - N/A   Clear
9:53 AM 26.1 °F - 10.0 °F 51% 30.41 in 10.0 mi Calm Calm - N/A   Clear
10:53 AM 28.0 °F 24.2 °F 10.9 °F 49% 30.43 in 10.0 mi NE 3.5 mph - N/A   Mostly Cloudy
11:53 AM 30.0 °F 25.2 °F 10.9 °F 45% 30.42 in 10.0 mi West 4.6 mph - N/A   Partly Cloudy
12:53 PM 32.0 °F 26.4 °F 10.0 °F 40% 30.42 in 10.0 mi West 5.8 mph - N/A   Clear
1:53 PM 35.1 °F 32.2 °F 10.0 °F 35% 30.37 in 10.0 mi NW 3.5 mph - N/A   Clear
2:53 PM 36.0 °F 32.1 °F 10.0 °F 34% 30.35 in 10.0 mi West 4.6 mph - N/A   Clear
3:53 PM 37.9 °F - 9.0 °F 30% 30.32 in 10.0 mi Calm Calm - N/A   Clear
4:53 PM 39.9 °F 35.1 °F 9.0 °F 28% 30.31 in 10.0 mi Variable 6.9 mph - N/A   Clear
5:53 PM 39.0 °F 34.8 °F 9.0 °F 29% 30.28 in 10.0 mi SSW 5.8 mph - N/A   Clear
6:53 PM 39.9 °F 35.8 °F 9.0 °F 28% 30.27 in 10.0 mi SSW 5.8 mph - N/A   Clear
7:53 PM 36.0 °F 31.1 °F 12.0 °F 37% 30.27 in 10.0 mi SSW 5.8 mph - N/A   Clear
8:53 PM 34.0 °F 28.8 °F 15.1 °F 46% 30.28 in 10.0 mi South 5.8 mph - N/A   Clear
9:53 PM 30.0 °F 24.1 °F 16.0 °F 56% 30.29 in 10.0 mi SSW 5.8 mph - N/A   Clear
10:53 PM 33.1 °F 27.7 °F 15.1 °F 48% 30.28 in 10.0 mi WSW 5.8 mph - N/A   Clear
11:53 PM 30.9 °F - 16.0 °F 54% 30.29 in 10.0 mi Calm Calm - N/A   Clear